Regional Weather Roundup
Issued by NWS

Home | Current Version | Previous Version | Graphics & Text | Print | Product List | Glossary Off
Versions: 1 2 3 4 5 6 7 8 9 10 11 12 13 14 15 16 17 18 19 20 21 22 23 24 25 26 27 28 29 30 31 32 33 34 35 36 37 38 39 40 41 42 43 44 45 46 47 48 49 50

020
ASUS43 KMKX 222111
RWRWI

WISCONSIN REGIONAL WEATHER ROUNDUP
NATIONAL WEATHER SERVICE MILWAUKEE/SULLIVAN WI
300 PM CST WED FEB 22 2017

NOTE: "FAIR" INDICATES FEW OR NO CLOUDS BELOW 12,000 FEET WITH NO
SIGNIFICANT WEATHER AND/OR OBSTRUCTIONS TO VISIBILITY.

WIZ001-002-006>008-014>016-023>028-222200-
NORTHWEST WISCONSIN

CITY           SKY/WX    TMP DP  RH WIND       PRES   REMARKS
SUPERIOR ARPT  CLOUDY    38  35  87 NE10G16   29.60F WCI  31
ASHLAND        MOSUNNY   44  36  73 NE8       29.59F
HAYWARD        CLOUDY    52  42  69 NE6       29.53F
SIREN          SUNNY     53  44  71 NE8       29.53F
CUMBERLAND     MOSUNNY   50  43  76 CALM      29.53F
RICE LAKE      MOSUNNY   55  44  65 CALM      29.55R
CHETEK         MOSUNNY   53  43  70 SE7       29.53F
LADYSMITH      CLOUDY    52  43  73 E7        29.54S
EAU CLAIRE     CLOUDY    56  42  59 NW7       29.53F
MENOMONIE      MOSUNNY   55  42  61 SE5       29.53F
NEW RICHMOND   MOSUNNY   55  44  66 CALM      29.53S
OSCEOLA        MOSUNNY   52  45  78 W5        29.57R
$$

WIZ003>005-009-010-017-018-222200-
NORTH CENTRAL WISCONSIN

CITY           SKY/WX    TMP DP  RH WIND       PRES   REMARKS
MANITOWISH WTR LGT RAIN  41  41 100 CALM      29.57S
ARBOR VITAE    LGT RAIN  45  43  93 SE5         N/A
WOODRUFF       LGT RAIN  45  43  93 SE5         N/A
RHINELANDER    CLOUDY    51  41  68 NW7       29.60R
EAGLE RIVER    LGT RAIN  46  39  78 CALM      29.58R
LAND O LAKES   RAIN      43  42  95 CALM      29.60R
PHILLIPS       CLOUDY    46  45  96 E5        29.53F
TOMAHAWK       CLOUDY    50  40  68 N3        29.58R
MEDFORD        CLOUDY    53  40  63 E3        29.55F
MERRILL        NOT AVBL
$$

WIZ029-030-035-036-043>047-222200-
CENTRAL WISCONSIN

CITY           SKY/WX    TMP DP  RH WIND       PRES   REMARKS
WAUSAU         CLOUDY    54  38  54 NW5       29.54S
MOSINEE        PTSUNNY   55  37  50 VRB5      29.56S
MARSHFIELD     CLOUDY    55  41  59 NW7       29.54F
STEVENS POINT  CLOUDY    54  35  48 W3        29.55F
WAUPACA        CLOUDY    65  39  38 NW7       29.53S
WAUTOMA        CLOUDY    67  43  41 SW12      29.52F
WISC RAPIDS    CLOUDY    59  37  44 NW3       29.54F
CAMP DOUGLAS   PTSUNNY   61  41  48 N5        29.52F
$$

WIZ011>013-019>022-031-037>040-048>050-222200-
NORTHEAST WISCONSIN

CITY           SKY/WX    TMP DP  RH WIND       PRES   REMARKS
ANTIGO         PTSUNNY   50  39  67 CALM      29.57R
SHAWANO        MOSUNNY   61  44  52 NW5       29.55R
OCONTO         PTSUNNY   60  45  57 W6        29.54R
STURGEON BAY   MOSUNNY   51  44  77 E6        29.55S
GREEN BAY      SUNNY     65  52  62 SW10      29.53S
MANITOWOC      SUNNY     52  44  74 S7        29.54F
APPLETON       PTSUNNY   64  45  48 SW12      29.52S
CLINTONVILLE   CLOUDY    61  37  41 W8        29.54S
OSHKOSH        MOSUNNY   64  50  60 S15       29.53S
$$

WIZ032>034-041-042-053>061-222200-
SOUTHWEST WISCONSIN

CITY           SKY/WX    TMP DP  RH WIND       PRES   REMARKS
LA CROSSE      CLOUDY    61  40  45 SW9       29.53F
SPARTA         CLOUDY    59  39  47 W3        29.53F
VIROQUA        CLOUDY    59  40  49 S9        29.53F
BOSCOBEL       PTSUNNY   68  43  40 W5        29.52F
PRAIRIE DU CHI SUNNY     68  39  34 SW3       29.52F
PLATTEVILLE    SUNNY     71  49  45 S13       29.55F
$$

WIZ056-057-062-063-064-067-068-222200-
SOUTH CENTRAL WISCONSIN

CITY           SKY/WX    TMP DP  RH WIND       PRES   REMARKS
REEDSBURG      CLOUDY    64  46  50 S9        29.52F
BARABOO/DELLS  CLOUDY    64  42  45 SW10      29.52F
LONE ROCK      MOSUNNY   68  47  46 W7        29.53F
MINERAL POINT  SUNNY     72  45  37 S15G22    29.54F
MADISON        CLOUDY    68  48  48 S13       29.55F
MIDDLETON      CLOUDY    71  49  45 S15       29.54F
WATERTOWN      MOSUNNY   67  49  51 S14G20    29.55F
MONROE         SUNNY     68  50  52 S20G28    29.56F
JANESVILLE     MOSUNNY   72  46  40 S18G24    29.58F
$$

WIZ051-052-058>065-066-070>072-222200-
SOUTHEAST WISCONSIN

CITY           SKY/WX    TMP DP  RH WIND       PRES   REMARKS
MILWAUKEE      MOSUNNY   71  48  43 SW16G25   29.59F
WAUKESHA       SUNNY     64  48  55 S17G25    29.59F
MILWAUKEE/TIMM SUNNY     68  45  42 S17G23    29.58F
RACINE         SUNNY     70  48  45 SW17G25   29.62F
KENOSHA        SUNNY     69  50  50 SW16G24   29.61F
FOND DU LAC    SUNNY     66  47  50 SW16G22   29.53F
SHEBOYGAN      SUNNY     69  47  45 SW16      29.53F
WEST BEND      SUNNY     68  45  42 SW18G24   29.54F
JUNEAU         MOSUNNY   64  49  59 S15       29.57F
$$

LSZ147-162-222200-
LAKE SUPERIOR

STATION/POSITION TIME  TEMP    WIND        PRES    WAVE
                       AIR SEA DIR/SP/G            HT/PER
                 (UTC) (F)     (DEG/KT/KT) (MB)    (FT/S)
DEVILS ISLAND    2100   35      90/ 11/ 12 1003.5F
PORT WING        2040   35      20/ 12/ 13 1002.7F
SAXON HARBOR     2040   35     350/  4/  5 1002.7F
$$

LMZ867-665-643>646-222200-
LAKE MICHIGAN

STATION/POSITION TIME  TEMP    WIND        PRES    WAVE
                       AIR SEA DIR/SP/G            HT/PER
                 (UTC) (F)     (DEG/KT/KT) (MB)    (FT/S)
CHAMBERS ISLAND  2040   48     300/  3/  6 1000.3S
NORTHPORT PIER   2040   44     160/  6/ 10 1001.4R
SISTER BAY       2035   48     160/  8/ 11   N/A
KEWAUNEE LAKESHO 2018   39     170/ 11/ 13 1000.2
SHEBOYGAN LAKESH 2100   49     190/ 18/ 19 1000.5F
PORT WASHINGTON  2030   47     170/  8/ 13 1002.0F
MILWAUKEE LAKESH 2050   64     200/ 15/ 19   N/A
KENOSHA   LAKESH 2100   46     160/ 13/ 15 1002.7
$$

TC  - TEMPERATURE IN CELSIUS
VSB - VISIBILITY IN STATUTE MILES
WCI - WIND CHILL INDEX
HX  - HEAT INDEX





USA.gov is the U.S. government's official web portal to all federal, state and local government web resources and services.